| time (UTC) | temp C | wind direction | speed KPH | gust KPH | rain 1hr cm | rain 24hr cm | rain mn cm | humidity % | barometer mb |
| 20260507213005 | 11 | 140 | 0.0 | 4.8 | 0.00 | 0.00 | 0.00 | 79 | 1017.3 |
| 20260507203504 | 11 | 188 | 0.0 | 0.0 | 0.00 | 0.00 | 0.00 | 77 | 1016.8 |
| 20260507203005 | 11 | 188 | 0.0 | 0.0 | 0.00 | 0.00 | 0.00 | 77 | 1016.7 |
| 20260507200005 | 11 | 188 | 0.0 | 0.0 | 0.00 | 0.00 | 0.00 | 74 | 1016.3 |
| 20260507193505 | 12 | 188 | 0.0 | 0.0 | 0.00 | 0.00 | 0.00 | 72 | 1016.1 |
| 20260507193005 | 12 | 188 | 0.0 | 3.2 | 0.00 | 0.00 | 0.00 | 72 | 1016.1 |
| 20260507190505 | 13 | 191 | 0.0 | 0.0 | 0.00 | 0.00 | 0.00 | 70 | 1016.1 |
| 20260507190006 | 13 | 191 | 0.0 | 1.6 | 0.00 | 0.00 | 0.00 | 70 | 1016.0 |
| 20260507183005 | 13 | 188 | 1.6 | 11.3 | 0.00 | 0.00 | 0.00 | 66 | 1016.0 |
| 20260507173505 | 14 | 214 | 1.6 | 11.3 | 0.00 | 0.00 | 0.00 | 59 | 1015.7 |
| 20260507173005 | 14 | 105 | 0.0 | 19.3 | 0.00 | 0.00 | 0.00 | 58 | 1015.7 |
| 20260507170505 | 14 | 147 | 4.8 | 16.1 | 0.00 | 0.00 | 0.00 | 59 | 1015.8 |
| 20260507163504 | 14 | 114 | 1.6 | 9.7 | 0.00 | 0.00 | 0.00 | 59 | 1015.8 |
| 20260507163005 | 14 | 190 | 1.6 | 19.3 | 0.00 | 0.00 | 0.00 | 60 | 1015.8 |
| 20260507160505 | 14 | 144 | 3.2 | 12.9 | 0.00 | 0.00 | 0.00 | 60 | 1015.8 |
| 20260507150005 | 15 | 178 | 0.0 | 9.7 | 0.00 | 0.00 | 0.00 | 58 | 1015.7 |
| 20260507143505 | 15 | 205 | 1.6 | 14.5 | 0.00 | 0.00 | 0.00 | 56 | 1015.8 |
| 20260507140006 | 15 | 171 | 1.6 | 8.0 | 0.00 | 0.00 | 0.00 | 53 | 1015.9 |
| 20260507133505 | 15 | 152 | 1.6 | 8.0 | 0.00 | 0.00 | 0.00 | 48 | 1016.0 |
| 20260507133005 | 15 | 71 | 0.0 | 4.8 | 0.00 | 0.00 | 0.00 | 46 | 1016.0 |
| 20260507130004 | 16 | 55 | 1.6 | 8.0 | 0.00 | 0.00 | 0.00 | 50 | 1016.2 |
| 20260507120505 | 14 | 152 | 1.6 | 8.0 | 0.00 | 0.00 | 0.00 | 58 | 1016.6 |
| 20260507110504 | 13 | 165 | 0.0 | 12.9 | 0.00 | 0.00 | 0.00 | 63 | 1016.6 |
| 20260507110005 | 13 | 156 | 3.2 | 9.7 | 0.00 | 0.00 | 0.00 | 63 | 1016.6 |
| 20260507103504 | 12 | 198 | 0.0 | 4.8 | 0.00 | 0.00 | 0.00 | 62 | 1016.8 |
| 20260507100504 | 12 | 213 | 0.0 | 3.2 | 0.00 | 0.00 | 0.00 | 62 | 1016.8 |
| 20260507093004 | 13 | 180 | 0.0 | 4.8 | 0.00 | 0.00 | 0.00 | 62 | 1016.6 |
| 20260507090504 | 12 | 162 | 0.0 | 1.6 | 0.00 | 0.00 | 0.00 | 67 | 1016.6 |
| 20260507083503 | 12 | 187 | 0.0 | 4.8 | 0.00 | 0.00 | 0.00 | 71 | 1016.7 |
| 20260507083004 | 12 | 101 | 0.0 | 4.8 | 0.00 | 0.00 | 0.00 | 72 | 1016.7 |
| 20260507080004 | 11 | 177 | 1.6 | 9.7 | 0.00 | 0.00 | 0.00 | 76 | 1016.7 |
| 20260507073504 | 10 | 187 | 1.6 | 8.0 | 0.00 | 0.00 | 0.00 | 81 | 1016.5 |
| 20260507073004 | 10 | 174 | 1.6 | 11.3 | 0.00 | 0.00 | 0.00 | 84 | 1016.6 |
| 20260507063003 | 6 | 15 | 0.0 | 0.0 | 0.00 | 0.00 | 0.00 | 93 | 1016.4 |
| 20260507053503 | 5 | 15 | 0.0 | 0.0 | 0.00 | 0.00 | 0.00 | 91 | 1016.1 |
| 20260507050004 | 5 | 15 | 0.0 | 0.0 | 0.00 | 0.00 | 0.00 | 89 | 1016.1 |
| 20260507043504 | 5 | 15 | 0.0 | 0.0 | 0.00 | 0.00 | 0.00 | 89 | 1016.0 |
| 20260507040004 | 5 | 15 | 0.0 | 0.0 | 0.00 | 0.00 | 0.00 | 88 | 1015.9 |
| 20260507033005 | 6 | 15 | 0.0 | 0.0 | 0.00 | 0.00 | 0.00 | 87 | 1015.9 |
| 20260507030506 | 6 | 15 | 0.0 | 0.0 | 0.00 | 0.00 | 0.00 | 86 | 1015.9 |
| 20260507023005 | 7 | 15 | 0.0 | 0.0 | 0.00 | 0.00 | 0.00 | 85 | 1015.9 |
| 20260507020505 | 7 | 15 | 0.0 | 0.0 | 0.00 | 0.00 | 0.00 | 85 | 1015.7 |
| 20260507020005 | 7 | 15 | 0.0 | 0.0 | 0.00 | 0.00 | 0.00 | 85 | 1015.6 |
| 20260507013506 | 7 | 15 | 0.0 | 0.0 | 0.00 | 0.00 | 0.00 | 84 | 1015.6 |
| 20260507013005 | 7 | 15 | 0.0 | 0.0 | 0.00 | 0.00 | 0.00 | 84 | 1015.7 |
| 20260507010005 | 7 | 15 | 0.0 | 0.0 | 0.00 | 0.00 | 0.00 | 82 | 1015.6 |
| 20260507003505 | 8 | 15 | 0.0 | 0.0 | 0.00 | 0.00 | 0.00 | 80 | 1015.5 |
| 20260507000505 | 9 | 15 | 0.0 | 0.0 | 0.00 | 0.00 | 0.00 | 77 | 1015.6 |
| 20260506233005 | 10 | 15 | 0.0 | 0.0 | 0.00 | 0.00 | 0.00 | 74 | 1015.4 |
| 20260506230505 | 10 | 15 | 0.0 | 0.0 | 0.00 | 0.00 | 0.00 | 72 | 1015.4 |
| 20260506230005 | 10 | 15 | 0.0 | 0.0 | 0.00 | 0.00 | 0.00 | 72 | 1015.4 |
| 20260506223505 | 10 | 15 | 0.0 | 0.0 | 0.00 | 0.00 | 0.00 | 71 | 1015.4 |
| 20260506220506 | 11 | 15 | 0.0 | 0.0 | 0.00 | 0.00 | 0.00 | 70 | 1015.1 |
| 20260506220005 | 11 | 15 | 0.0 | 0.0 | 0.00 | 0.00 | 0.00 | 70 | 1015.2 |